Flag for U.S.A. Weather past 2 weeks in Yonkers, New York, U.S.A.

Now
74 °F

Partly sunny.


Feels Like: 77 °F
Forecast: 56 / 73 °F
Wind: 14 mph from South

Location: Teterboro Airport

Current Time: Sep 20, 2014 at 4:07:22 PM

Latest Report: Sep 20, 2014 at 2:51 PM


Visibility: 10 mi

Pressure: 30.16 "Hg

Humidity: 57%

Dew point: 58 °F

Location of YonkersLocation

Historic Weather in Yonkers — Graph

°F

Yonkers temperature yesterday

Maximum temperature yesterday: 66 °F (at 3:51 PM)
Minimum temperature yesterday: 54 °F (at 6:51 AM)
Average temperature yesterday: 60 °F

Past Weeks' High & Low Weather Summary

 TemperatureHumidityPressure
High94 °F (Sep 6, 2:51 PM)94% (Sep 13, 6:58 PM)30.37 "Hg (Sep 13, 6:58 PM)
Low50 °F (Sep 15, 4:51 AM)26% (Sep 18, 4:51 PM)29.80 "Hg (Sep 11, 3:51 PM)
Average67 °F62%30.10 "Hg
* Reported Sep 5 2:51 PM — Sep 20 2:51 PM, Yonkers, Weather by CustomWeather, © 2014

Note: Actual official high and low records may vary slightly from our data, if they occured in-between our weather recording intervals... More about our weather records

Advertising

Yonkers weather history for previous 24 hours

 ConditionsComfort  
Time TempWeatherWind HumidityBarometerVisibility
2:51 PM
Sep 20
74 °FPartly sunny.14 mph57%30.16 "Hg10 mi
1:51 PM74 °FScattered clouds.14 mph56%30.19 "Hg10 mi
8:51 AM62 °FMostly cloudy.No wind73%30.29 "Hg10 mi
7:51 AM59 °FOvercast.3 mph75%30.29 "Hg10 mi
6:51 AM56 °FClear.5 mph77%30.30 "Hg10 mi
5:51 AM57 °FClear.3 mph78%30.31 "Hg10 mi
4:51 AM57 °FPassing clouds.3 mph74%30.30 "Hg10 mi
3:51 AM60 °FOvercast.No wind67%30.31 "Hg10 mi
2:51 AM60 °FOvercast.3 mph67%30.31 "Hg10 mi
1:51 AM60 °FPassing clouds.7 mph65%30.31 "Hg10 mi
12:51 AM60 °FClear.6 mph62%30.33 "Hg10 mi
11:51 PM
Sep 19
60 °FPassing clouds.5 mph62%30.34 "Hg10 mi
10:51 PM61 °FMostly cloudy.7 mph58%30.37 "Hg10 mi
9:51 PM61 °FOvercast.9 mph58%30.37 "Hg10 mi
8:51 PM61 °FOvercast.8 mph58%30.36 "Hg10 mi
7:51 PM62 °FOvercast.9 mph56%30.35 "Hg10 mi
6:51 PM64 °FPartly sunny.8 mph49%30.33 "Hg10 mi
5:51 PM64 °FSunny.5 mph49%30.33 "Hg10 mi
4:51 PM65 °FSunny.6 mph47%30.32 "Hg10 mi
Weather by CustomWeather, © 2014

See weather overviewHow to use our weather pages